www.pogodaiklimat.ru

Погода и климат >> Архив погоды >> Канада >> Timmins


ПОГОДА в Timmins

  • Прогноз погоды в Timmins
  • Монитор погоды в Timmins
  • Климат города

АРХИВ ПОГОДЫ в Timmins

Время (UTC), дата Ветер
(напр.,м/с)
 
Видим.   Явления Облачность Т
(С)
Тd
(С)
f
(%)
Тe
(С)
Тes
(С)
Комфортность P
(гПа)
Po
(гПа)
Тmin
(С)
Tmax
(С)
R
(мм)
R24
(мм)
S
(см)
18 13.08 З 2 24 км {ливн. осадки} 8/5 600 м
[Cu hum Ac As]
+21.5 +14.3 64 +24 +29 комфорт 1014.2 979.0 +7.4 +21.5
21 13.08 ЮВ 2 24 км 9/9 600 м
[]
+16.7 +14.5 87 +17 +18 1014.5 979.0
00 14.08 штиль 0 24 км {гроза, ливн. осадки} 10/0
[Ac As Ci fib]
+16.5 +15.8 96 +16 +16 1013.9 978.5 +7.4 +22.5
03 14.08 Ю 2 24 км 9/0 2000 м
[]
+15.0 +14.5 97 +15 +15 1014.4 979.0
06 14.08 ЮЗ 1 8000 м {ливн. осадки} 4/0
[Ac und]
+11.2 +10.9 98 +11 +11 1013.9 978.6 +7.4 +22.5 21
09 14.08 Ю 2 8000 м 8/0 2000 м
[]
+12.5 +12.2 98 +12 +12 1013.7 978.3
12 14.08 ЮВ 1 12 км слабый дождь 10/6 1500 м
[Sc Ac As]
+13.6 +13.3 98 +14 +14 1013.8 978.4 +10.5 +22.5
15 14.08 Ю 2 19 км 9/9 100 м
[]
+15.9 +14.8 93 +16 +17 1013.2 977.9
18 14.08 ЮВ 2 24 км {ливн. осадки, снег} 9/4 600 м
[Cu hum Ac As Ci sp]
+21.4 +15.6 70 +25 +30 комфорт 1011.6 976.4 +10.5 +21.7
21 14.08 Ю 2 24 км 8/8 1000 м
[]
+23.1 +14.0 57 +27 +28 душно 1009.3 974.3
00 15.08 З 3 24 км слабый ливневой дождь 10/4 1500 м
[Cu med, cong Ac As Ci fib]
+19.2 +13.0 67 +21 +21 комфорт 1009.7 974.6 +10.5 +24.4
03 15.08 Ю 3 24 км 8/8 1500 м
[]
+14.8 +12.6 87 +14 +14 1009.2 974.0
06 15.08 ЮЗ 2 24 км {ливн. осадки} 9/4 2000 м
[Cu hum Ac As]
+14.7 +13.3 91 +15 +15 1008.7 973.6 +10.5 +24.4 23
09 15.08 С 2 24 км 10/10 100 м
[]
+14.5 +13.6 94 +14 +14 1009.6 974.5
12 15.08 С 5 16 км в посл. час дождь 9/9 200 м
[St]
+11.6 +10.5 93 +9 +9 1012.4 977.1 +11.6 +24.4
15 15.08 С 4 24 км 10/10 300 м
[]
+12.2 +9.3 82 +10 +10 1014.3 978.8
18 15.08 С 2 24 км 9/6 600 м
[Sc Ac As Ci fib]
+18.1 +10.1 60 +19 +22 1014.9 979.6 +11.4 +18.3
21 15.08 СЗ 4 24 км 6/6 1000 м
[]
+19.2 +9.1 52 +20 +22 1014.3 979.0
00 16.08 СЗ 3 24 км 6/4 1000 м
[Sc Ci sp]
+15.3 +8.6 64 +15 +15 1015.9 980.4 +11.4 +19.4
03 16.08 З 2 24 км ясно +7.2 +6.6 96 +5 +5 1017.6 981.7
06 16.08 С 1 24 км ясно +5.1 +4.7 97 +5 +5 1017.6 981.9 +4.9 +19.4 23
09 16.08 ЮЗ 1 8000 м ясно +3.1 +2.8 98 +1 +1 1018.5 982.7
12 16.08 Ю 2 24 км 5/0
[Ac As]
+8.2 +7.9 98 +6 +7 1019.7 983.9 +3.1 +19.4
15 16.08 ЮЗ 4 24 км 10/0
[]
+19.1 +10.4 57 +20 +24 1019.3 983.6
18 16.08 З 4 24 км 5/1 1500 м
[Cu hum Ci]
+22.2 +10.5 47 +24 +32 комфорт 1018.1 982.5 +3.1 +23.0
21 16.08 ЮЗ 4 24 км 8/8 1500 м
[]
+22.9 +10.8 46 +25 +26 комфорт 1017.3 981.7
00 17.08 ЮЗ 2 24 км 8/0 2000 м
[As trans Ci fib]
+19.1 +12.4 65 +21 +21 комфорт 1016.5 980.9 +3.1 +24.0
03 17.08 ЮЗ 2 24 км ясно +14.5 +10.9 79 +14 +14 1017.1 981.7
06 17.08 Ю 2 24 км ясно +9.7 +9.3 97 +8 +8 1017.0 981.6 +3.1 +24.0 18
09 17.08 С 1 24 км ясно +9.1 +8.7 97 +9 +9 1016.2 980.8
12 17.08 ЮВ 1 24 км 8/0
[Ac trans Ci fib]
+10.9 +10.1 95 +10 +11 1016.7 981.2 +7.1 +24.0
15 17.08 Ю 2 24 км 10/0
[]
+20.3 +12.9 62 +23 +28 комфорт 1015.0 979.7
18 17.08 ЮВ 5 24 км 10/1 1500 м
[Cu hum Cs]
+21.4 +10.0 48 +23 +29 комфорт 1013.0 977.7 +7.1 +21.8
21 17.08 ЮВ 2 24 км 10/0 2000 м
[]
+17.5 +13.6 78 +18 +21 1011.7 976.3
00 18.08 В 3 16 км слабый дождь 10/10 1000 м
[Frnb]
+15.5 +14.1 91 +15 +15 1010.9 975.5 +7.1 +21.8
03 18.08 В 5 24 км 10/10 1000 м
[]
+14.4 +13.4 94 +13 +13 1009.4 974.3
06 18.08 В 4 24 км в посл. час дождь 10/10 600 м
[Sc]
+14.9 +14.1 95 +14 +14 1005.8 970.8 +7.1 +21.8 3
09 18.08 В 5 24 км 10/10 300 м
[]
+15.1 +14.2 94 +14 +14 1003.6 968.6
12 18.08 В 4 9000 м слабый дождь 10/10 100 м
[Frnb]
+14.3 +13.6 96 +13 +13 1002.8 967.7 +14.0 +21.8
15 18.08 В 4 4800 м 10/10 100 м
[]
+14.6 +14.0 96 +13 +13 1001.7 966.6
18 18.08 В 2 9000 м слабая морось {дождь} 10/10 200 м
[Frnb]
+16.3 +14.9 91 +16 +16 1001.2 966.2 +14.0 +16.5
21 18.08 СЗ 3 4800 м 10/10 200 м
[]
+16.4 +15.6 95 +16 +16 1001.4 966.4
00 19.08 СЗ 3 19 км слабый дождь {морось} 10/10 100 м
[Frnb]
+15.7 +15.2 97 +15 +15 1002.8 967.7 +14.0 +17.2
03 19.08 СЗ 3 24 км 10/10 200 м
[]
+15.1 +14.4 96 +14 +14 1004.1 969.1
06 19.08 СЗ 5 16 км в посл. час морось {дождь} 10/10 100 м
[Frnb]
+14.4 +13.7 96 +13 +13 1004.7 969.7 +14.0 +17.2 10
09 19.08 СЗ 4 24 км 10/10 200 м
[]
+13.3 +12.3 94 +12 +12 1006.0 970.9
12 19.08 СЗ 3 24 км {морось} 10/10 200 м
[St]
+12.9 +11.6 92 +11 +11 1007.8 972.6 +12.7 +17.2
15 19.08 СЗ 4 24 км 10/10 300 м
[]
+15.5 +11.7 78 +15 +15 1008.6 973.4
18 19.08 З 2 24 км 10/8 600 м
[Sc Ci fib]
+19.1 +12.6 66 +21 +23 комфорт 1008.5 973.4 +12.7 +19.4
21 19.08 З 3 24 км 8/8 1000 м
[]
+22.0 +13.4 58 +25 +26 комфорт 1007.8 972.7
00 20.08 ЮЗ 2 24 км 9/5 1000 м
[Cu med, cong Ac As Ci fib]
+18.3 +14.5 79 +19 +19 1008.3 973.2 +12.7 +22.5
03 20.08 ЮЗ 1 24 км 10/0
[]
+15.4 +12.8 84 +16 +16 1009.4 974.2
06 20.08 З 3 24 км {ливн. осадки} ясно +14.4 +12.9 91 +14 +14 1010.0 974.9 +12.7 +22.5 2
09 20.08 Ю 2 24 км ясно +11.7 +11.3 97 +11 +11 1011.0 975.8
12 20.08 Ю 3 16 км 5/0
[Ci fib]
+13.2 +12.6 96 +12 +13 1012.4 977.1 +11.0 +22.5

 

Местоположение метеостанции Timmins (Канада): широта 48.57 долгота -81.36 высота над уровнем моря 295 м.

В архиве по умолчанию представлена погода в Timmins за последнюю неделю. Архивные данные за месяц целиком и за предыдущие месяцы, начиная с января 2011 года, Вы можете получить, выбрав интересующий диапазон дат из раскрывающегося списка и нажав кнопку "Ввод!".

Внимание! Время в таблицах - всемирное. Для получения местного времени необходимо прибавить поправку, которая в Timmins равна -5 ч.

Смотрите также архив погоды в соседних городах и на ближайших метеорологических станциях:

Погода в Timmins Climate (Канада) (3 км)
Погода в Kirkland Lake (Канада) (111 км)
Погода в Kapuskasing (Канада) (122 км)
Погода в Kapuskasing (Канада) (122 км)
Погода в Kapuskasing Airport (Канада) (124 км)
Погода в Earlton (Канада) (148 км)
Погода в Earlton Climate (Канада) (151 км)
Погода в Chapleau A (Канада) (169 км)
Погода в Rouyn (Канада) (176 км)
Погода в Barrage Angliers (Канада) (195 км)

Пояснения к столбцам:

Ветер - указаны скорость ветра в м/с - средняя за 10 мин, порывы в срок и между сроками (в фигурных скобках) и направление, откуда дует ветер: С - северный, СВ - северо-восточный, В - восточный, ЮВ - юго-восточный, Ю - южный, ЮЗ - юго-западный, З - западный, СЗ - северо-западный.
Видимость - горизонтальная дальность видимости в метрах или километрах. При видимости от 1 до 10 км при отсутствии осадков обычно наблюдается дымка, при ухудшении видимости до 1 км и менее - туман. В сухую погоду видимость может ухудшаться дымом, пылью или мглою.
Явления - указаны атмосферные явления, наблюдавшиеся в срок или в последний час перед сроком; фигурными скобками обозначены явления, наблюдавшиеся между сроками (за 1-3 часа до срока); квадратными скобками обозначены град или гололедные отложения с указанием их диаметра в мм.
Облачность - указаны через наклонную черту общая и нижняя облачность в баллах и высота нижней границы облаков в метрах; квадратными скобками обозначены формы облаков: Ci - перистые, Cs - перисто-слоистые, Cc - перисто-кучевые, Ac - высококучевые, As - высокослоистые, Sc - слоисто-кучевые, Ns - слоисто-дождевые, Cu - кучевые, Cb - кучево-дождевые. Подробнее классификацию облаков см. в Атласе облаков (PDF).
T - Температура воздуха - температура, измеренная на высоте 2 м над землей.
Td - Температура точки росы - температура, при понижении до которой содержащийся в воздухе водяной пар достигнет насыщения.
f - Относительная влажность воздуха - влажноcть воздуха, измеренная на высоте 2 м над землей.
Te - Эффективная температура - температура, которую ощущает одетый по сезону человек в тени. Характеристика душности погоды. При расчете учитывается влияние влажности воздуха и скорости ветра на теплоощущения человека.
Tes - Эффективная температура на солнце - температура, которую ощущает человек, с поправкой на солнечный нагрев. Характеристика знойности погоды. Зависит от высоты солнца над горизонтом, облачности и скорости ветра. Ночью, в пасмурную погоду, а также при ветре 12 м/с и более поправка равна нулю.
P - Атмосферное давление - приведенное к уровню моря атмосферное давление.
Po - Атмосферное давление - измеренное на уровне метеостанции атмосферное давление.
Tmin - Минимальная температура - минимум температуры воздуха на высоте 2 м над землей.
Tmax - Максимальная температура - максимум температуры воздуха на высоте 2 м над землей.
R - Количество осадков - Количество выпавших осадков за период времени, мм. При наведении курсора мыши на число - период времени, за который выпало указанное количество осадков.
R24 - Количество осадков - Количество выпавших осадков за 24 часа, мм.
S - Снежный покров - Высота снежного покрова, см. При наведении курсора мыши на число - состояние снежного покрова и степень покрытия местности в баллах.